Theta_e
323 312 311 315 321 325 329 331 329 328 332 330 327 335 337 344 348 345 348 351 359 360 361 359 359 358 358 359 360 358 358 358
316 314 320 320 323 326 328 330 331 331 326 331 338 338 344 347 344 343 345 348 356 359 359 356 355 353 353 352 350 350 349 349
315 316 320 324 326 324 324 326 329 331 326 328 339 344 346 344 343 341 342 346 348 355 356 355 353 351 351 350 349 347 347 347
312 316 321 325 327 326 326 328 329 329 328 331 342 341 343 345 343 343 343 345 345 352 352 351 351 351 349 348 347 346 346 346
315 316 318 322 327 324 325 328 328 333 326 332 339 340 342 342 343 343 344 342 344 348 351 351 348 346 344 344 343 341 342 344
317 314 316 324 328 330 329 329 335 335 326 329 339 343 343 343 343 342 342 339 336 337 336 338 337 342 344 344 344 344 342 343
315 315 319 327 325 332 337 334 334 337 336 339 343 344 342 341 340 339 335 335 337 335 333 333 333 337 344 344 343 340 338 340
322 323 322 325 326 329 329 330 331 333 338 340 341 339 337 335 332 330 330 333 335 337 336 336 334 336 335 333 333 333 333 333
323 325 327 326 326 330 327 325 331 330 332 336 336 335 332 332 329 330 332 334 335 337 336 334 333 334 333 332 332 331 331 330
326 327 327 326 329 328 331 331 334 334 335 335 333 329 329 330 329 330 331 332 334 335 336 336 334 333 332 331 330 329 329 327
327 327 329 329 326 327 328 333 335 335 335 332 328 328 328 329 330 330 329 332 333 335 336 336 335 334 333 331 328 328 326 325
328 328 328 326 326 327 329 333 331 332 330 328 327 327 328 330 331 332 333 333 334 334 336 334 335 334 330 328 326 324 323 322
326 327 326 328 321 324 329 330 327 325 326 326 328 328 329 331 332 333 332 335 333 333 334 334 333 332 330 327 324 322 320 321
324 326 326 325 317 326 330 328 325 325 326 326 328 329 329 332 333 334 334 334 334 332 331 331 329 328 326 325 323 320 319 319
319 326 325 322 320 326 330 328 326 325 326 327 329 329 330 332 334 334 334 334 332 331 327 327 327 324 323 323 320 319 318 317
315 323 323 320 319 326 327 328 327 326 326 327 327 329 331 333 334 333 333 332 331 328 327 325 323 321 319 319 319 318 316 316
315 323 320 318 320 324 327 326 326 325 326 326 327 330 332 333 330 331 331 328 327 326 325 322 318 316 316 315 316 316 316 315
317 322 319 316 317 324 326 326 327 326 326 325 326 328 330 332 330 330 328 326 326 324 323 320 318 318 317 316 316 316 316 315
311 319 320 316 314 320 326 328 328 327 327 327 326 326 329 329 329 328 326 325 324 323 321 320 320 318 317 317 316 313 312 311
311 313 307 319 304 318 323 324 326 327 327 325 327 328 329 328 326 325 325 325 324 322 320 319 319 318 317 313 311 311 310 310
Wind_Speed
10 7 3 16 14 15 10 4 6 10 15 11 14 14 10 6 8 2 17 17 14 15 17 19 19 18 19 17 16 18 18 17
12 12 20 19 12 8 13 15 13 18 16 11 12 8 12 10 3 12 17 15 14 14 16 17 17 18 18 18 17 15 14 12
13 17 14 11 8 7 9 9 11 19 17 14 14 10 13 9 6 11 11 15 15 14 16 17 17 18 17 17 17 17 16 14
13 15 12 12 6 7 15 16 15 19 16 11 10 12 10 10 7 9 10 14 15 14 17 17 18 18 18 18 18 16 15 13
16 14 14 11 3 11 13 15 10 14 16 10 14 9 10 10 8 8 10 11 14 16 18 20 18 18 17 16 15 15 13 10
15 7 15 9 12 10 13 13 6 4 11 12 13 10 10 12 12 12 14 13 13 12 13 15 15 13 15 12 11 10 12 15
17 12 16 10 14 11 14 12 17 21 19 15 13 13 12 10 13 16 13 13 14 14 13 12 11 9 11 12 12 13 14 14
15 16 14 10 14 12 12 14 16 16 14 13 13 13 16 14 14 15 16 16 14 10 9 8 7 7 8 8 8 9 11 13
7 17 14 12 12 9 11 14 13 13 14 13 11 10 12 15 15 14 14 12 12 9 9 9 7 6 5 5 6 6 10 11
14 11 12 13 11 13 16 14 12 12 14 12 12 13 12 13 13 13 14 12 11 11 8 10 8 7 8 6 7 7 8 12
11 9 12 10 11 12 14 12 12 12 12 12 13 13 12 12 13 12 12 11 12 11 8 9 9 8 7 8 7 8 8 10
11 12 10 13 14 9 12 13 12 12 12 12 13 13 11 11 11 11 11 10 9 11 10 11 8 8 7 7 8 8 8 9
13 13 11 10 10 11 13 13 13 13 11 12 12 11 10 10 10 10 9 9 8 7 10 9 10 7 6 8 8 8 8 10
16 14 9 11 10 14 14 14 14 13 12 12 11 11 9 10 9 8 8 8 9 11 11 10 8 8 6 7 7 8 8 9
11 15 12 14 10 15 13 13 13 13 13 12 12 10 7 8 9 9 8 8 10 10 13 11 10 9 9 9 7 8 8 9
12 15 11 12 9 15 14 14 13 14 14 12 10 11 8 7 10 7 9 9 9 10 12 11 8 9 7 7 7 7 7 9
5 15 10 12 11 11 16 15 14 14 14 12 10 13 10 9 6 8 9 9 9 11 12 10 8 8 7 7 7 7 7 11
10 8 9 11 12 14 18 17 15 15 14 14 9 12 10 9 5 7 8 7 9 10 11 10 7 6 6 5 5 6 8 10
8 9 11 12 16 15 17 18 17 14 12 13 14 10 11 9 6 7 7 7 8 9 9 9 10 6 7 4 5 8 9 9
15 7 12 14 12 20 18 19 19 18 16 16 14 12 12 11 7 5 7 7 7 8 8 8 9 7 8 8 8 8 9 9
Wind_Direction
197 304 174 81 76 85 76 106 108 108 53 40 77 49 77 99 151 129 80 70 59 56 57 62 59 55 52 52 55 52 46 41
212 76 67 79 76 113 149 120 79 118 86 85 36 77 62 31 17 57 74 71 75 69 71 69 68 62 58 57 55 54 50 60
69 81 59 66 69 7 69 53 93 97 84 92 90 75 91 81 35 68 68 85 78 71 74 70 69 65 63 59 51 46 41 35
98 95 85 64 39 76 72 87 103 105 95 85 94 87 104 105 77 83 78 88 94 95 84 78 74 71 67 62 58 51 43 41
104 113 100 75 52 44 114 83 38 113 95 108 100 105 91 83 91 80 91 112 114 110 107 83 72 72 67 65 63 56 41 21
98 149 96 97 78 62 56 93 80 204 124 116 106 104 97 104 92 70 55 52 88 99 85 93 86 89 85 65 51 56 49 5
104 96 112 143 96 76 77 78 58 57 83 104 119 126 116 113 115 102 103 84 62 45 44 55 72 116 117 96 59 33 15 7
86 109 110 89 100 121 122 107 98 102 110 126 148 155 150 134 104 102 90 76 63 56 93 49 62 43 36 37 45 31 22 357
91 90 103 108 112 131 137 126 136 122 123 140 142 135 112 88 94 101 102 98 93 69 39 30 70 23 36 28 17 26 23 3
97 120 127 101 95 66 62 73 108 122 127 135 144 108 115 123 99 86 76 70 78 64 61 41 14 30 15 20 3 11 13 19
134 130 104 138 103 103 104 114 113 121 142 139 110 102 92 89 80 81 80 67 66 55 50 42 32 10 24 357 22 355 3 29
151 122 134 118 128 126 123 125 128 149 133 126 124 118 118 100 90 76 58 59 54 63 42 24 39 7 5 18 356 3 8 21
157 155 152 145 154 121 140 147 143 143 140 133 130 132 116 104 90 91 84 53 28 46 54 32 9 6 0 29 352 8 7 17
168 160 142 234 127 134 161 165 160 159 153 150 148 130 118 104 97 86 69 79 61 17 28 18 22 349 354 27 358 18 3 10
163 167 143 223 113 150 180 186 172 175 168 167 151 129 127 115 113 90 76 54 45 44 26 6 14 353 1 18 20 16 10 17
160 166 201 198 245 149 182 202 186 187 181 178 160 150 144 103 84 93 74 58 55 38 26 1 10 359 12 16 23 14 20 24
145 120 195 246 199 189 180 213 199 192 197 162 178 143 140 113 101 90 74 64 44 43 26 8 18 7 4 4 24 7 25 41
79 108 244 245 228 191 187 207 214 199 200 152 164 158 142 124 125 100 87 73 55 39 33 18 10 15 355 10 20 7 33 18
243 142 241 264 255 201 200 191 216 203 192 160 170 157 158 152 168 111 90 65 59 45 31 31 346 23 360 10 22 21 19 15
273 199 269 185 298 185 190 192 206 202 197 153 155 162 159 161 136 127 109 85 66 48 32 47 19 33 32 9 15 31 6 24